www.pogodaiklimat.ru

Погода и климат >> Архив погоды >> Черногория >> Подгорица


АРХИВ ПОГОДЫ в Подгорице

Время (UTC), дата Ветер
(напр.,м/с)
 
Видим.   Явления Облачность Т
(С)
Тd
(С)
f
(%)
Тe
(С)
Тes
(С)
Комфортность P
(гПа)
Po
(гПа)
Тmin
(С)
Tmax
(С)
R
(мм)
R24
(мм)
S
(см)
21 11.06 С 2 10 км 5/0 2000 м
[Ac trans Ci sp]
+24.4 +17.8 67 +29 +29 душно 1011.7 1007.9
00 12.06 С 1 10 км ясно +22.6 +17.1 71 +27 +27 душно 1011.8 1007.9
03 12.06 С 1 10 км ясно +20.6 +16.6 78 +25 +25 комфорт 1012.1 1008.1
06 12.06 С 1 20 км ясно +24.6 +17.6 65 +29 +35 душно 1013.2 1009.3 +20.3
09 12.06 штиль 0 20 км ясно +28.7 +17.9 52 +33 +56 опасность
солнечного
удара
1013.4 1009.5
12 12.06 Ю 2 20 км ясно +31.0 +17.0 43 +35 +53 опасность
солнечного
удара
1012.6 1008.8
15 12.06 Ю 3 20 км 3/1 1200 м
[Cu hum Ci sp]
+31.8 +17.7 43 +36 +41 очень
душно
1012.1 1008.3
18 12.06 Ю 1 20 км 8/0
[Cs]
+28.6 +19.9 59 +35 +35 очень
душно
1012.7 1008.9 +32.1
21 12.06 Ю 1 20 км 3/0
[Ci sp]
+25.2 +15.6 55 +28 +28 жарко 1014.2 1010.3
00 13.06 штиль 0 20 км ясно +22.4 +17.6 74 +27 +27 душно 1014.2 1010.3
03 13.06 СВ 1 20 км ясно +20.8 +17.6 82 +26 +26 душно 1014.2 1010.2
06 13.06 С 1 20 км ясно +25.6 +17.2 60 +30 +36 душно 1015.3 1011.5 +20.7
09 13.06 ЮЗ 1 20 км ясно +30.2 +18.4 49 +35 +55 опасность
солнечного
удара
1015.3 1011.4
12 13.06 Ю 2 20 км ясно +32.8 +15.9 36 +35 +54 опасность
солнечного
удара
1014.7 1010.9
15 13.06 ЮЗ 2 20 км ясно +33.0 +12.0 28 +33 +40 жарко 1014.5 1010.8
18 13.06 ЮВ 2 20 км ясно +27.8 +16.0 49 +31 +31 душно 1014.9 1011.0 +33.5
21 13.06 СВ 2 20 км ясно +22.9 +14.6 59 +27 +27 душно 1016.2 1012.3
00 14.06 СЗ 1 20 км ясно +20.9 +14.1 65 +25 +25 комфорт 1016.1 1012.1
03 14.06 С 1 20 км ясно +19.6 +13.3 67 +22 +22 комфорт 1016.1 1012.1
06 14.06 С 1 20 км ясно +25.4 +13.6 48 +28 +34 жарко 1016.8 1012.9 +18.2
09 14.06 штиль 0 20 км ясно +30.4 +13.1 35 +32 +55 опасность
солнечного
удара
1016.2 1012.4
12 14.06 Ю 2 20 км ясно +32.3 +15.4 36 +35 +53 опасность
солнечного
удара
1015.1 1011.3
15 14.06 Ю 2 20 км 1/1 1200 м
[Cu med, cong]
+33.5 +13.9 31 +35 +41 душно 1013.9 1010.1
18 14.06 Ю 1 20 км ясно +30.2 +17.5 47 +34 +35 очень
душно
1014.1 1010.3 +34.3
21 14.06 С 1 20 км ясно +26.1 +19.9 69 +32 +32 очень
душно
1015.0 1011.2
00 15.06 штиль 0 20 км ясно +22.5 +18.7 79 +28 +28 душно 1014.5 1010.6
03 15.06 штиль 0 20 км ясно +20.7 +18.1 85 +24 +24 комфорт 1013.9 1010.0
06 15.06 штиль 0 20 км ясно +26.2 +19.1 65 +31 +39 очень
душно
1013.9 1010.1 +19.9
09 15.06 З 1 20 км ясно +32.9 +15.5 35 +35 +55 опасность
солнечного
удара
1013.3 1009.6
12 15.06 Ю 2 20 км 3/0
[Ci sp]
+35.1 +15.2 30 +37 +54 опасность
солнечного
удара
1011.9 1008.1
15 15.06 ЮЗ 2 20 км ясно +35.1 +15.9 32 +37 +44 очень
душно
1010.7 1006.9
18 15.06 штиль 0 20 км 4/0
[Ci sp]
+30.3 +17.9 47 +35 +35 очень
душно
1010.3 1006.5 +35.7
21 15.06 штиль 0 20 км 4/0
[Ci fib]
+25.6 +19.7 70 +31 +31 очень
душно
1011.0 1007.2
00 16.06 С 2 20 км 3/0
[Ci fib]
+25.3 +15.9 56 +29 +29 душно 1011.2 1007.3
03 16.06 СВ 1 20 км 1/0
[Ci sp]
+23.4 +15.3 60 +28 +28 душно 1010.8 1006.9
06 16.06 С 2 20 км ясно +27.6 +15.2 47 +30 +36 жарко 1011.3 1007.5 +22.3
09 16.06 Ю 1 20 км ясно +31.3 +18.6 47 +36 +56 опасность
солнечного
удара
1011.3 1007.5
12 16.06 Ю 2 20 км 4/3 1200 м
[Cu med, cong Ci sp]
+33.6 +16.6 36 +36 +49 очень
душно
1010.1 1006.3
15 16.06 СЗ 4 10 км гроза без осадков 9/5 1000 м
[Cb cap Ac trans]
+28.4 +13.7 40 +30 +31 жарко 1010.7 1006.9
18 16.06 В 1 10 км {гроза} 6/1 1200 м
[Sc diur, vesp Ac trans Ci sp]
+26.8 +13.8 45 +29 +29 жарко 1009.8 1005.9 +34.3
21 16.06 С 3 10 км 4/0
[Ci sp]
+23.0 +15.3 62 +27 +27 душно 1012.4 1008.5
00 17.06 С 2 10 км 4/0
[Ci sp]
+22.5 +12.9 55 +25 +25 комфорт 1012.0 1008.1
03 17.06 С 1 10 км 4/0
[Ci sp]
+22.0 +11.5 51 +24 +24 комфорт 1011.7 1007.8
06 17.06 Ю 1 20 км 5/0
[Ci sp]
+25.3 +15.0 53 +28 +34 жарко 1012.9 1009.0 +20.1
09 17.06 Ю 1 20 км 4/0
[Ci sp]
+30.9 +14.4 37 +33 +51 опасность
солнечного
удара
1012.6 1008.8
12 17.06 Ю 2 20 км 4/1 1200 м
[Cu med, cong Ac trans Ci fib]
+31.9 +15.9 38 +35 +48 очень
душно
1011.6 1007.8
15 17.06 С 3 20 км 5/3 1000 м
[Cu med, cong Ac trans Ci sp]
+33.3 +13.3 30 +34 +38 очень
жарко
1010.6 1006.8
18 17.06 С 3 20 км 9/3 1200 м
[Cu Sc Ac As Ci sp]
+29.2 +11.8 34 +30 +30 жарко 1011.9 1008.0 +34.2
21 17.06 С 2 20 км 8/3 1200 м
[Sc diur, vesp Ac trans Cs]
+26.2 +10.7 38 +27 +27 жарко 1012.9 1009.1
00 18.06 штиль 0 20 км 6/0
[Ac trans Ci sp]
+22.4 +12.2 52 +25 +25 комфорт 1013.5 1009.6
03 18.06 штиль 0 20 км 9/0
[Ac As]
+22.6 +12.3 52 +25 +25 комфорт 1013.2 1009.3
06 18.06 штиль 0 10 км 9/3 1200 м
[Cu Sc Ac As]
+24.6 +13.1 49 +27 +29 жарко 1014.3 1010.4 +21.7
09 18.06 Ю 1 10 км 6/1 1200 м
[Cu med, cong Ac trans Ci fib]
+28.0 +13.1 40 +30 +43 жарко 1014.2 1010.4
12 18.06 Ю 2 10 км 5/3 1200 м
[Cu med, cong Ac trans Ci sp]
+31.0 +15.3 39 +33 +44 душно 1013.0 1009.2
15 18.06 ЮЗ 2 20 км 3/1 1200 м
[Cu med, cong Ci fib]
+31.8 +14.6 35 +34 +40 душно 1011.8 1008.0
18 18.06 С 5 20 км 5/1 1500 м
[Sc diur, vesp Ac trans Ci fib]
+26.1 +13.3 45 +28 +28 жарко 1012.9 1009.1 +32.2

 

Местоположение метеостанции Подгорица (Черногория): широта 42.37 долгота 19.25 высота над уровнем моря 33 м.

В архиве по умолчанию представлена погода в Подгорице за последнюю неделю. Архивные данные за месяц целиком и за предыдущие месяцы, начиная с января 2011 года, Вы можете получить, выбрав интересующий диапазон дат из раскрывающегося списка и нажав кнопку "Ввод!".


*Определитесь, кто Вы:
робот инопланетянин человек

Внимание! Время в таблицах - всемирное. Для получения местного времени необходимо прибавить поправку, которая равна 1 ч.

Смотрите также архив погоды в соседних городах и на ближайших метеорологических станциях:

Погода в Подгорица-Граде (Черногория) (7 км)
Погода в Баре (Черногория) (32 км)
Погода в Шкодре (Албания) (38 км)
Погода в Тивате (Черногория) (43 км)
Погода в Никшиче (Черногория) (51 км)
Погода в Дубровник аэропорту (Хорватия) (83 км)
Погода в Дубровнике (Хорватия) (101 км)
Погода в Плевле (Черногория) (109 км)
Погода в Тиране Лапрака (Албания) (117 км)
Погода в Женике (Сербия) (118 км)

Пояснения к столбцам:

Ветер - указаны скорость ветра в м/с - средняя за 10 мин, порывы в срок и между сроками (в фигурных скобках) и направление, откуда дует ветер: С - северный, СВ - северо-восточный, В - восточный, ЮВ - юго-восточный, Ю - южный, ЮЗ - юго-западный, З - западный, СЗ - северо-западный.
Видимость - горизонтальная дальность видимости в метрах или километрах. При видимости от 1 до 10 км при отсутствии осадков обычно наблюдается дымка, при ухудшении видимости до 1 км и менее - туман. В сухую погоду видимость может ухудшаться дымом, пылью или мглою.
Явления - указаны атмосферные явления, наблюдавшиеся в срок или в последний час перед сроком; фигурными скобками обозначены явления, наблюдавшиеся между сроками (за 1-3 часа до срока); квадратными скобками обозначены град или гололедные отложения с указанием их диаметра в мм.
Облачность - указаны через наклонную черту общая и нижняя облачность в баллах и высота нижней границы облаков в метрах; квадратными скобками обозначены формы облаков: Ci - перистые, Cs - перисто-слоистые, Cc - перисто-кучевые, Ac - высококучевые, As - высокослоистые, Sc - слоисто-кучевые, Ns - слоисто-дождевые, Cu - кучевые, Cb - кучево-дождевые. Подробнее классификацию облаков см. в Атласе облаков (PDF).
T - Температура воздуха - температура, измеренная на высоте 2 м над землей.
Td - Температура точки росы - температура, при понижении до которой содержащийся в воздухе водяной пар достигнет насыщения.
f - Относительная влажность воздуха - влажноcть воздуха, измеренная на высоте 2 м над землей.
Te - Эффективная температура - температура, которую ощущает одетый по сезону человек в тени. Характеристика душности погоды. При расчете учитывается влияние влажности воздуха и скорости ветра на теплоощущения человека.
Tes - Эффективная температура на солнце - температура, которую ощущает человек, с поправкой на солнечный нагрев. Характеристика знойности погоды. Зависит от высоты солнца над горизонтом, облачности и скорости ветра. Ночью, в пасмурную погоду, а также при ветре 12 м/с и более поправка равна нулю.
P - Атмосферное давление - приведенное к уровню моря атмосферное давление.
Po - Атмосферное давление - измеренное на уровне метеостанции атмосферное давление.
Tmin - Минимальная температура - минимум температуры воздуха на высоте 2 м над землей.
Tmax - Максимальная температура - максимум температуры воздуха на высоте 2 м над землей.
R - Количество осадков - Количество выпавших осадков за период времени, мм. При наведении курсора мыши на число - период времени, за который выпало указанное количество осадков.
R24 - Количество осадков - Количество выпавших осадков за 24 часа, мм.
S - Снежный покров - Высота снежного покрова, см. При наведении курсора мыши на число - состояние снежного покрова и степень покрытия местности в баллах.